Tucson, AZ

1:33 PM MST on September 23, 2019 (GMT -0700)
Tucson International

Weather History for KTUS - July, 2019

Change the Weather History Date:

Thursday, July 11, 2019

  Actual Average Record
Temperature  
Mean Temperature 96 °F 88 °F  
Max Temperature 108 °F 101 °F 111 °F (1958)
Min Temperature 83 °F 75 °F 68 °F (1937)
Degree Days  
Heating Degree Days 0 0  
Month to date heating degree days 0 0  
Since 1 June heating degree days 0 0  
Since 1 July heating degree days 0 0  
Cooling Degree Days 31 23  
Month to date cooling degree days 268 253  
Year to date cooling degree days 1253 1349  
Since 1 June cooling degree days 881 847  
Growing Degree Days 45 (Base 50)    
Moisture  
Dew Point 38 °F    
Average Humidity 13    
Maximum Humidity 20    
Minimum Humidity 4    
Precipitation  
Precipitation 0.00 in 0.06 in 1.73 in (2008)
Month to date precipitation 0.02 0.53  
Year to date precipitation 5.05 3.80  
Sea Level Pressure  
Sea Level Pressure 29.81 in    
Wind  
Wind Speed 8 mph (WNW)    
Max Wind Speed 20 mph    
Max Gust Speed 26 mph    
Visibility 10 miles    
Events      
T = Trace of Precipitation, MM = Missing Value Source: NWS Daily Summary

Daily Weather History Graph

Daily Weather History Graph

Search for Another Location

Airport or City:

Astronomy

Jul. 11, 2019 Rise Set
Actual Time 5:25 AM MST 7:32 PM MST
Civil Twilight 4:57 AM MST 8:00 PM MST
Nautical Twilight 4:23 AM MST 8:34 PM MST
Astronomical Twilight 3:47 AM MST 9:10 PM MST
Moon 2:58 PM MST (7/11) 1:26 AM MST (7/11)
Length of Visible Light 15h 02m
Length of Day
14h 06m
Waxing Gibbous, 75% of the Moon is Illuminated
Jul 11
Waxing Gibbous
Jul 16
Full
Jul 24
Last Quarter
Jul 31
New
Aug 7
First Quarter

Hourly Weather History & Observations

Time (MST) Temp. Dew Point Humidity Pressure Visibility Wind Dir Wind Speed Gust Speed Precip Events Conditions
12:53 AM 89.1 °F 37.9 °F 16% 29.84 in 10.0 mi West 8.1 mph - N/A   Clear
1:53 AM 89.1 °F 37.9 °F 16% 29.81 in 10.0 mi West 8.1 mph - N/A   Clear
2:53 AM 84.9 °F 39.0 °F 20% 29.82 in 10.0 mi WSW 6.9 mph - N/A   Clear
3:53 AM 84.9 °F 37.9 °F 19% 29.82 in 10.0 mi West 4.6 mph - N/A   Clear
4:53 AM 84.0 °F 37.9 °F 19% 29.84 in 10.0 mi WSW 3.5 mph - N/A   Clear
5:53 AM 84.9 °F 37.0 °F 18% 29.86 in 10.0 mi SSW 3.5 mph - N/A   Clear
6:53 AM 84.9 °F 37.9 °F 19% 29.88 in 10.0 mi South 4.6 mph - N/A   Clear
7:53 AM 89.1 °F 39.0 °F 17% 29.89 in 10.0 mi Calm Calm - N/A   Clear
8:53 AM 93.0 °F 39.0 °F 15% 29.89 in 10.0 mi West 3.5 mph - N/A   Clear
9:53 AM 96.1 °F 39.0 °F 14% 29.87 in 10.0 mi Calm Calm - N/A   Clear
10:53 AM 100.0 °F 39.0 °F 12% 29.85 in 10.0 mi Variable 4.6 mph - N/A   Clear
11:53 AM 100.9 °F 39.0 °F 12% 29.84 in 10.0 mi West 6.9 mph - N/A   Clear
12:53 PM 104.0 °F 37.9 °F 10% 29.81 in 10.0 mi NNW 9.2 mph - N/A   Clear
1:53 PM 105.1 °F 37.9 °F 10% 29.78 in 10.0 mi NNW 9.2 mph - N/A   Clear
2:53 PM 104.0 °F 37.9 °F 10% 29.76 in 10.0 mi West 11.5 mph - N/A   Clear
3:53 PM 108.0 °F 37.9 °F 9% 29.73 in 10.0 mi NNW 9.2 mph 16.1 mph N/A   Clear
4:53 PM 107.1 °F 37.9 °F 9% 29.72 in 10.0 mi NNW 13.8 mph 23.0 mph N/A   Clear
5:53 PM 105.1 °F 39.0 °F 10% 29.72 in 10.0 mi NNW 12.7 mph 23.0 mph N/A   Clear
6:53 PM 100.9 °F 37.9 °F 11% 29.74 in 10.0 mi NNW 17.3 mph 26.5 mph N/A   Clear
7:53 PM 98.1 °F 37.9 °F 12% 29.77 in 10.0 mi NW 17.3 mph 24.2 mph N/A   Clear
8:53 PM 96.1 °F 37.9 °F 13% 29.79 in 10.0 mi WNW 8.1 mph - N/A   Clear
9:53 PM 95.0 °F 39.0 °F 14% 29.79 in 10.0 mi NW 12.7 mph - N/A   Clear
10:53 PM 93.9 °F 39.9 °F 15% 29.79 in 10.0 mi NW 5.8 mph - N/A   Clear
11:53 PM 93.0 °F 39.9 °F 16% 29.81 in 10.0 mi WNW 3.5 mph - N/A   Clear